Weather History for Washington, PA

Change the Weather History Date:

Monday, May 6, 2013

  Actual Average Record
Temperature  
Mean Temperature 56 °F -  
Max Temperature 69 °F 67 °F 84 °F (1999)
Min Temperature 44 °F 44 °F 33 °F (2011)
Degree Days  
Heating Degree Days 8    
Growing Degree Days 6 (Base 50)    
Moisture  
Dew Point 44 °F    
Average Humidity 61    
Maximum Humidity 88    
Minimum Humidity 46    
Precipitation  
Precipitation 0.00 in - - ()
Sea Level Pressure  
Sea Level Pressure 30.05 in    
Wind  
Wind Speed 7 mph (East)    
Max Wind Speed 17 mph    
Max Gust Speed 23 mph    
Visibility 10 miles    
Events      
Averages and records for this station are not official NWS values.
T = Trace of Precipitation, MM = Missing Value Source: NWS Daily Summary

Daily Weather History Graph

Daily Weather History Graph

Search for Another Location

Airport:

Trip Planner

Search our weather history database for the weather conditions in past years. The results will help you decide how hot, cold, wet, or windy it might be!

Date:

Astronomy

May. 06, 2013 Rise Set
Actual Time 6:14 AM EDT 8:21 PM EDT
Civil Twilight 5:44 AM EDT 8:51 PM EDT
Nautical Twilight 5:08 AM EDT 9:28 PM EDT
Astronomical Twilight 4:28 AM EDT 10:08 PM EDT
Moon 4:16 AM EDT (5/6) 5:19 PM EDT (5/6)
Length of Visible Light 15h 06m
Length of Day
14h 06m
Waning Crescent, 11% of the Moon is Illuminated
May 6
Waning Crescent
May 9
New
May 18
First Quarter
May 25
Full
May 31
Last Quarter

Hourly Weather History & Observations

Time (EDT) Temp. Windchill Dew Point Humidity Pressure Visibility Wind Dir Wind Speed Gust Speed Precip Events Conditions
12:15 AM 53.6 °F - 33.8 °F 47% 30.08 in 10.0 mi East 4.6 mph - N/A   Clear
12:35 AM 51.8 °F - 35.6 °F 54% 30.08 in 10.0 mi East 4.6 mph - N/A   Clear
12:55 AM 51.8 °F - 35.6 °F 54% 30.08 in 10.0 mi East 5.8 mph - N/A   Clear
1:15 AM 51.8 °F - 35.6 °F 54% 30.08 in 10.0 mi East 5.8 mph - N/A   Clear
1:35 AM 50.0 °F - 35.6 °F 58% 30.07 in 10.0 mi Calm Calm - N/A   Clear
1:55 AM 48.2 °F - 35.6 °F 62% 30.07 in 10.0 mi ENE 3.5 mph - N/A   Clear
2:15 AM 48.2 °F - 35.6 °F 62% 30.07 in 10.0 mi Calm Calm - N/A   Clear
2:35 AM 48.2 °F - 35.6 °F 62% 30.07 in 10.0 mi Calm Calm - N/A   Clear
2:55 AM 48.2 °F - 35.6 °F 62% 30.06 in 10.0 mi ENE 4.6 mph - N/A   Clear
3:15 AM 48.2 °F - 35.6 °F 62% 30.06 in 10.0 mi NE 4.6 mph - N/A   Clear
3:35 AM 48.2 °F - 35.6 °F 62% 30.06 in 10.0 mi ENE 4.6 mph - N/A   Clear
3:55 AM 46.4 °F 43.5 °F 35.6 °F 66% 30.05 in 10.0 mi NE 5.8 mph - N/A   Clear
4:15 AM 46.4 °F 44.3 °F 35.6 °F 66% 30.05 in 10.0 mi NE 4.6 mph - N/A   Clear
4:35 AM 46.4 °F 44.3 °F 35.6 °F 66% 30.05 in 10.0 mi ENE 4.6 mph - N/A   Clear
4:55 AM 44.6 °F 43.1 °F 35.6 °F 71% 30.06 in 10.0 mi NNE 3.5 mph - N/A   Clear
5:15 AM 46.4 °F 44.3 °F 35.6 °F 66% 30.06 in 10.0 mi NE 4.6 mph - N/A   Clear
5:35 AM 44.6 °F 43.1 °F 35.6 °F 71% 30.06 in 10.0 mi ENE 3.5 mph - N/A   Clear
5:55 AM 44.6 °F 42.2 °F 37.4 °F 76% 30.06 in 10.0 mi NE 4.6 mph - N/A   Clear
6:15 AM 44.6 °F 40.7 °F 37.4 °F 76% 30.06 in 10.0 mi NE 6.9 mph - N/A   Clear
6:35 AM 44.6 °F - 37.4 °F 76% 30.07 in 10.0 mi Calm Calm - N/A   Clear
6:55 AM 44.6 °F 43.1 °F 37.4 °F 76% 30.07 in 10.0 mi East 3.5 mph - N/A   Clear
7:15 AM 48.2 °F - 37.4 °F 66% 30.08 in 10.0 mi ENE 3.5 mph - N/A   Clear
7:35 AM 50.0 °F - 39.2 °F 66% 30.08 in 10.0 mi East 8.1 mph - N/A   Clear
7:55 AM 51.8 °F - 39.2 °F 62% 30.08 in 10.0 mi ENE 9.2 mph - N/A   Clear
8:15 AM 51.8 °F - 39.2 °F 62% 30.08 in 10.0 mi East 5.8 mph - N/A   Clear
8:35 AM 53.6 °F - 41.0 °F 62% 30.08 in 10.0 mi ENE 10.4 mph - N/A   Clear
8:55 AM 53.6 °F - 41.0 °F 62% 30.08 in 10.0 mi East 10.4 mph - N/A   Partly Cloudy
9:15 AM 55.4 °F - 42.8 °F 63% 30.08 in 10.0 mi East 11.5 mph 16.1 mph N/A   Clear
9:35 AM 57.2 °F - 44.6 °F 63% 30.08 in 10.0 mi East 10.4 mph - N/A   Clear
9:55 AM 60.8 °F - 44.6 °F 55% 30.08 in 10.0 mi East 12.7 mph 18.4 mph N/A   Clear
10:15 AM 60.8 °F - 44.6 °F 55% 30.08 in 10.0 mi East 12.7 mph - N/A   Clear
10:35 AM 60.8 °F - 46.4 °F 59% 30.08 in 10.0 mi East 11.5 mph 16.1 mph N/A   Clear
10:55 AM 62.6 °F - 46.4 °F 55% 30.08 in 10.0 mi East 10.4 mph - N/A   Clear
11:15 AM 60.8 °F - 46.4 °F 59% 30.08 in 10.0 mi East 13.8 mph - N/A   Clear
11:35 AM 62.6 °F - 48.2 °F 59% 30.08 in 10.0 mi East 13.8 mph 18.4 mph N/A   Mostly Cloudy
11:55 AM 64.4 °F - 48.2 °F 56% 30.08 in 10.0 mi East 17.3 mph 21.9 mph N/A   Overcast
12:15 PM 66.2 °F - 50.0 °F 56% 30.07 in 10.0 mi East 11.5 mph 18.4 mph N/A   Overcast
12:35 PM 66.2 °F - 50.0 °F 56% 30.07 in 10.0 mi ESE 12.7 mph 18.4 mph N/A   Mostly Cloudy
12:55 PM 66.2 °F - 50.0 °F 56% 30.06 in 10.0 mi East 12.7 mph 18.4 mph N/A   Overcast
1:15 PM 66.2 °F - 50.0 °F 56% 30.06 in 10.0 mi East 15.0 mph 18.4 mph N/A   Overcast
1:35 PM 66.2 °F - 48.2 °F 52% 30.06 in 10.0 mi East 9.2 mph - N/A   Overcast
1:55 PM 68.0 °F - 50.0 °F 52% 30.05 in 10.0 mi East 17.3 mph 21.9 mph N/A   Mostly Cloudy
2:15 PM 68.0 °F - 50.0 °F 52% 30.05 in 10.0 mi East 12.7 mph - N/A   Overcast
2:35 PM 66.2 °F - 51.8 °F 60% 30.04 in 10.0 mi East 15.0 mph 18.4 mph N/A   Overcast
2:55 PM 66.2 °F - 48.2 °F 52% 30.04 in 10.0 mi East 12.7 mph - N/A   Overcast
3:15 PM 68.0 °F - 50.0 °F 52% 30.03 in 10.0 mi ESE 10.4 mph 20.7 mph N/A   Overcast
3:35 PM 66.2 °F - 50.0 °F 56% 30.02 in 10.0 mi East 10.4 mph - N/A   Overcast
3:55 PM 68.0 °F - 48.2 °F 49% 30.01 in 10.0 mi East 12.7 mph 20.7 mph N/A   Mostly Cloudy
4:15 PM 68.0 °F - 48.2 °F 49% 30.01 in 10.0 mi ESE 15.0 mph 21.9 mph N/A   Mostly Cloudy
4:35 PM 69.8 °F - 48.2 °F 46% 30.01 in 10.0 mi ESE 10.4 mph 21.9 mph N/A   Mostly Cloudy
4:55 PM 69.8 °F - 50.0 °F 49% 30.00 in 10.0 mi ESE 13.8 mph 18.4 mph N/A   Mostly Cloudy
5:15 PM 66.2 °F - 48.2 °F 52% 30.01 in 10.0 mi East 10.4 mph 17.3 mph N/A   Mostly Cloudy
5:35 PM 69.8 °F - 50.0 °F 49% 30.01 in 10.0 mi East 15.0 mph 18.4 mph N/A   Mostly Cloudy
5:55 PM 66.2 °F - 48.2 °F 52% 30.01 in 10.0 mi ESE 13.8 mph - N/A   Scattered Clouds
6:15 PM 66.2 °F - 48.2 °F 52% 30.01 in 10.0 mi ESE 12.7 mph 23.0 mph N/A   Scattered Clouds
6:55 PM 66.2 °F - 48.2 °F 52% 30.01 in 10.0 mi ESE 11.5 mph 18.4 mph N/A   Mostly Cloudy
7:15 PM 64.4 °F - 48.2 °F 56% 30.02 in 10.0 mi East 5.8 mph - N/A   Scattered Clouds
7:35 PM 64.4 °F - 48.2 °F 56% 30.03 in 10.0 mi ESE 8.1 mph - N/A   Mostly Cloudy
7:55 PM 62.6 °F - 48.2 °F 59% 30.03 in 10.0 mi ESE 8.1 mph - N/A   Mostly Cloudy
8:15 PM 62.6 °F - 48.2 °F 59% 30.03 in 10.0 mi ESE 6.9 mph - N/A   Overcast
8:35 PM 62.6 °F - 48.2 °F 59% 30.04 in 10.0 mi ESE 8.1 mph - N/A   Overcast
8:55 PM 62.6 °F - 50.0 °F 63% 30.04 in 10.0 mi East 8.1 mph 16.1 mph N/A   Overcast
9:15 PM 60.8 °F - 50.0 °F 68% 30.05 in 10.0 mi East 12.7 mph 18.4 mph N/A   Overcast
9:35 PM 60.8 °F - 51.8 °F 72% 30.05 in 10.0 mi ENE 8.1 mph 19.6 mph N/A   Mostly Cloudy
9:55 PM 60.8 °F - 51.8 °F 72% 30.06 in 10.0 mi East 10.4 mph 16.1 mph N/A   Mostly Cloudy
10:15 PM 59.0 °F - 51.8 °F 77% 30.06 in 10.0 mi ENE 9.2 mph - N/A   Overcast
10:35 PM 57.2 °F - 51.8 °F 82% 30.07 in 10.0 mi East 11.5 mph 18.4 mph N/A   Overcast
10:55 PM 57.2 °F - 53.6 °F 88% 30.06 in 10.0 mi East 4.6 mph - N/A   Overcast
11:15 PM 57.2 °F - 51.8 °F 82% 30.04 in 10.0 mi NE 6.9 mph - N/A   Mostly Cloudy
11:35 PM 57.2 °F - 51.8 °F 82% 30.04 in 10.0 mi ENE 6.9 mph - N/A   Partly Cloudy
11:55 PM 57.2 °F - 51.8 °F 82% 30.04 in 10.0 mi NE 8.1 mph - N/A   Scattered Clouds